QPF
0.00 0.00 0.00 0.00 0.00 0.00 0.00 0.00 0.00 0.00 0.03 0.05 0.10 0.15 0.19 0.16 0.15 0.17 0.12 0.10 0.04 0.02 0.01 0.00 0.00 0.00 0.00 0.01 0.01 0.07 0.13 0.09 0.01 0.02 0.03 0.01 0.00 0.00 0.00 0.00 0.00 0.00 0.00
0.00 0.00 0.00 0.00 0.00 0.00 0.00 0.00 0.00 0.00 0.01 0.02 0.04 0.09 0.17 0.16 0.13 0.14 0.13 0.14 0.11 0.06 0.03 0.01 0.01 0.01 0.02 0.02 0.06 0.13 0.18 0.12 0.03 0.05 0.15 0.09 0.03 0.00 0.00 0.00 0.00 0.00 0.00
0.00 0.00 0.00 0.00 0.00 0.00 0.00 0.00 0.00 0.00 0.00 0.01 0.02 0.04 0.09 0.10 0.15 0.17 0.16 0.16 0.16 0.12 0.08 0.04 0.02 0.02 0.02 0.04 0.08 0.16 0.24 0.14 0.05 0.03 0.10 0.17 0.14 0.03 0.00 0.00 0.00 0.00 0.00
0.00 0.00 0.00 0.00 0.00 0.00 0.00 0.00 0.00 0.00 0.00 0.01 0.01 0.03 0.06 0.10 0.12 0.12 0.12 0.11 0.13 0.14 0.12 0.07 0.06 0.05 0.04 0.07 0.08 0.13 0.24 0.26 0.17 0.07 0.03 0.04 0.05 0.04 0.04 0.01 0.00 0.00 0.00
0.00 0.00 0.00 0.00 0.00 0.00 0.00 0.00 0.00 0.00 0.00 0.01 0.02 0.04 0.07 0.08 0.08 0.07 0.09 0.10 0.12 0.11 0.08 0.06 0.06 0.07 0.07 0.07 0.10 0.15 0.25 0.28 0.26 0.15 0.07 0.04 0.03 0.01 0.04 0.06 0.02 0.00 0.00
0.00 0.00 0.00 0.00 0.00 0.00 0.00 0.00 0.00 0.00 0.00 0.00 0.01 0.01 0.03 0.05 0.06 0.07 0.09 0.11 0.13 0.10 0.08 0.07 0.05 0.07 0.08 0.08 0.10 0.16 0.25 0.26 0.27 0.19 0.10 0.08 0.04 0.01 0.01 0.04 0.04 0.02 0.00
0.00 0.00 0.00 0.00 0.00 0.00 0.00 0.00 0.00 0.00 0.00 0.00 0.00 0.00 0.00 0.01 0.02 0.03 0.04 0.05 0.06 0.07 0.08 0.10 0.12 0.13 0.13 0.12 0.13 0.19 0.25 0.26 0.30 0.21 0.12 0.06 0.02 0.00 0.00 0.01 0.01 0.04 0.02
0.00 0.00 0.00 0.00 0.00 0.00 0.00 0.00 0.00 0.00 0.00 0.00 0.00 0.00 0.00 0.00 0.00 0.00 0.02 0.03 0.04 0.05 0.04 0.07 0.12 0.17 0.20 0.18 0.16 0.18 0.22 0.24 0.29 0.23 0.18 0.16 0.07 0.01 0.00 0.00 0.03 0.10 0.12
0.00 0.00 0.00 0.00 0.00 0.00 0.00 0.00 0.00 0.00 0.00 0.00 0.00 0.00 0.00 0.00 0.00 0.00 0.02 0.04 0.03 0.02 0.02 0.03 0.05 0.09 0.13 0.15 0.15 0.14 0.16 0.19 0.26 0.25 0.22 0.25 0.17 0.04 0.00 0.00 0.02 0.09 0.16
0.08 0.05 0.03 0.01 0.00 0.00 0.00 0.00 0.00 0.00 0.00 0.00 0.00 0.00 0.00 0.00 0.00 0.00 0.01 0.02 0.02 0.02 0.01 0.01 0.01 0.03 0.05 0.06 0.09 0.12 0.16 0.19 0.24 0.28 0.29 0.33 0.28 0.13 0.04 0.01 0.01 0.02 0.10
0.08 0.07 0.08 0.05 0.01 0.00 0.00 0.00 0.00 0.00 0.00 0.00 0.00 0.00 0.00 0.00 0.00 0.00 0.00 0.00 0.01 0.01 0.01 0.01 0.01 0.03 0.05 0.05 0.08 0.14 0.20 0.24 0.27 0.29 0.33 0.39 0.36 0.30 0.17 0.09 0.07 0.05 0.08
0.01 0.01 0.02 0.02 0.01 0.00 0.00 0.00 0.00 0.00 0.00 0.00 0.00 0.00 0.00 0.00 0.00 0.00 0.00 0.00 0.00 0.01 0.02 0.02 0.03 0.04 0.04 0.05 0.06 0.12 0.19 0.27 0.31 0.32 0.34 0.37 0.39 0.42 0.34 0.25 0.17 0.13 0.10
0.00 0.00 0.00 0.00 0.00 0.00 0.00 0.00 0.00 0.00 0.00 0.00 0.00 0.00 0.00 0.00 0.00 0.00 0.00 0.00 0.01 0.02 0.02 0.03 0.04 0.06 0.06 0.05 0.04 0.05 0.10 0.17 0.26 0.31 0.30 0.29 0.31 0.36 0.31 0.24 0.17 0.15 0.11
0.00 0.00 0.00 0.00 0.00 0.00 0.00 0.00 0.00 0.00 0.00 0.00 0.00 0.00 0.00 0.00 0.00 0.00 0.00 0.00 0.01 0.01 0.02 0.03 0.06 0.08 0.08 0.08 0.06 0.05 0.05 0.06 0.11 0.18 0.22 0.23 0.23 0.23 0.19 0.16 0.16 0.20 0.18
0.00 0.00 0.00 0.00 0.00 0.00 0.00 0.00 0.00 0.00 0.01 0.01 0.01 0.02 0.01 0.00 0.00 0.00 0.00 0.00 0.00 0.00 0.01 0.02 0.03 0.04 0.06 0.06 0.08 0.07 0.04 0.04 0.03 0.04 0.06 0.09 0.12 0.13 0.11 0.10 0.14 0.22 0.24
0.00 0.00 0.00 0.00 0.00 0.00 0.00 0.00 0.01 0.02 0.02 0.03 0.03 0.02 0.02 0.01 0.01 0.01 0.00 0.00 0.00 0.01 0.01 0.01 0.01 0.03 0.03 0.03 0.04 0.04 0.03 0.04 0.04 0.03 0.02 0.02 0.03 0.04 0.04 0.03 0.04 0.08 0.12
0.01 0.00 0.00 0.00 0.00 0.00 0.00 0.01 0.01 0.03 0.04 0.04 0.02 0.02 0.02 0.02 0.03 0.03 0.04 0.03 0.03 0.03 0.04 0.03 0.02 0.03 0.06 0.04 0.01 0.01 0.02 0.03 0.05 0.04 0.04 0.03 0.01 0.01 0.01 0.01 0.01 0.01 0.02
0.01 0.01 0.01 0.01 0.01 0.02 0.02 0.02 0.03 0.05 0.05 0.04 0.03 0.03 0.03 0.04 0.06 0.07 0.08 0.10 0.09 0.07 0.07 0.08 0.09 0.11 0.13 0.09 0.02 0.01 0.01 0.02 0.02 0.02 0.02 0.03 0.02 0.01 0.01 0.02 0.02 0.02 0.04
0.01 0.01 0.01 0.01 0.01 0.01 0.01 0.02 0.03 0.03 0.03 0.02 0.02 0.02 0.02 0.03 0.04 0.06 0.07 0.10 0.12 0.14 0.15 0.15 0.16 0.18 0.15 0.12 0.04 0.01 0.01 0.00 0.00 0.01 0.01 0.02 0.01 0.02 0.03 0.04 0.06 0.08 0.10
0.00 0.00 0.00 0.00 0.00 0.00 0.00 0.00 0.00 0.00 0.00 0.00 0.00 0.00 0.00 0.01 0.02 0.03 0.04 0.05 0.07 0.10 0.12 0.12 0.13 0.16 0.16 0.18 0.07 0.03 0.02 0.02 0.03 0.03 0.03 0.05 0.04 0.05 0.05 0.05 0.08 0.08 0.08
0.00 0.00 0.00 0.00 0.00 0.00 0.00 0.00 0.00 0.00 0.00 0.00 0.00 0.00 0.00 0.00 0.00 0.01 0.01 0.02 0.02 0.03 0.05 0.07 0.08 0.12 0.16 0.20 0.14 0.08 0.07 0.07 0.09 0.10 0.09 0.08 0.09 0.04 0.02 0.03 0.05 0.05 0.05
0.00 0.00 0.00 0.00 0.00 0.00 0.00 0.00 0.00 0.00 0.00 0.00 0.00 0.00 0.00 0.00 0.00 0.00 0.01 0.01 0.01 0.02 0.03 0.04 0.07 0.09 0.12 0.15 0.15 0.10 0.09 0.10 0.13 0.17 0.15 0.14 0.13 0.04 0.01 0.00 0.01 0.01 0.01
0.00 0.00 0.00 0.00 0.00 0.00 0.00 0.00 0.00 0.00 0.00 0.00 0.00 0.00 0.00 0.00 0.01 0.01 0.01 0.01 0.01 0.02 0.03 0.05 0.07 0.10 0.14 0.16 0.13 0.08 0.06 0.06 0.12 0.17 0.18 0.17 0.10 0.03 0.01 0.00 0.00 0.00 0.01
0.00 0.00 0.00 0.00 0.00 0.00 0.00 0.00 0.00 0.00 0.00 0.00 0.00 0.00 0.00 0.00 0.01 0.01 0.02 0.02 0.02 0.03 0.04 0.05 0.08 0.10 0.12 0.14 0.13 0.12 0.10 0.08 0.09 0.09 0.08 0.07 0.04 0.02 0.02 0.01 0.00 0.01 0.02
0.00 0.00 0.00 0.00 0.00 0.00 0.00 0.00 0.00 0.00 0.00 0.00 0.00 0.00 0.00 0.00 0.01 0.00 0.00 0.01 0.01 0.01 0.03 0.05 0.08 0.10 0.10 0.08 0.07 0.11 0.16 0.18 0.22 0.21 0.14 0.10 0.06 0.04 0.02 0.01 0.01 0.02 0.02
0.00 0.00 0.00 0.00 0.00 0.00 0.00 0.00 0.00 0.00 0.00 0.00 0.00 0.00 0.00 0.00 0.00 0.00 0.00 0.00 0.00 0.00 0.00 0.01 0.02 0.04 0.03 0.02 0.01 0.03 0.07 0.12 0.16 0.23 0.26 0.25 0.22 0.19 0.12 0.06 0.02 0.01 0.02
MSLP
1003.34 1003.67 1004.06 1004.44 1004.81 1005.15 1005.50 1005.88 1006.32 1006.83 1007.41 1008.03 1008.66 1009.26 1009.78 1010.18 1010.44 1010.58 1010.63 1010.63 1010.64 1010.69 1010.84 1011.10 1011.47 1011.93 1012.45 1013.00 1013.54 1014.04 1014.51 1014.92 1015.27 1015.58 1015.83 1016.02 1016.15 1016.21 1016.20 1016.13 1016.04 1015.95 1015.89
1003.13 1003.60 1004.13 1004.65 1005.13 1005.54 1005.91 1006.28 1006.68 1007.14 1007.68 1008.27 1008.89 1009.48 1009.99 1010.38 1010.64 1010.76 1010.77 1010.73 1010.69 1010.70 1010.81 1011.05 1011.41 1011.87 1012.40 1012.97 1013.54 1014.08 1014.58 1015.03 1015.43 1015.77 1016.05 1016.27 1016.41 1016.48 1016.47 1016.40 1016.29 1016.19 1016.12
1002.94 1003.55 1004.23 1004.89 1005.47 1005.96 1006.36 1006.72 1007.09 1007.50 1007.98 1008.51 1009.07 1009.62 1010.10 1010.46 1010.69 1010.80 1010.79 1010.74 1010.68 1010.68 1010.78 1011.00 1011.35 1011.80 1012.33 1012.89 1013.46 1014.00 1014.51 1014.98 1015.40 1015.77 1016.09 1016.35 1016.53 1016.64 1016.66 1016.62 1016.53 1016.43 1016.37
1002.81 1003.52 1004.32 1005.09 1005.78 1006.33 1006.77 1007.13 1007.46 1007.81 1008.21 1008.66 1009.14 1009.62 1010.05 1010.38 1010.58 1010.68 1010.68 1010.63 1010.59 1010.60 1010.71 1010.94 1011.29 1011.73 1012.23 1012.76 1013.30 1013.82 1014.30 1014.76 1015.18 1015.57 1015.92 1016.22 1016.46 1016.63 1016.71 1016.71 1016.67 1016.60 1016.55
1002.79 1003.55 1004.42 1005.27 1006.02 1006.62 1007.08 1007.43 1007.71 1008.00 1008.32 1008.68 1009.08 1009.48 1009.84 1010.13 1010.32 1010.42 1010.44 1010.43 1010.42 1010.48 1010.62 1010.87 1011.21 1011.64 1012.11 1012.59 1013.08 1013.54 1013.98 1014.39 1014.79 1015.18 1015.55 1015.89 1016.18 1016.40 1016.55 1016.62 1016.63 1016.61 1016.60
1002.91 1003.67 1004.54 1005.41 1006.18 1006.79 1007.24 1007.57 1007.82 1008.04 1008.29 1008.58 1008.90 1009.23 1009.54 1009.79 1009.97 1010.08 1010.13 1010.17 1010.22 1010.33 1010.51 1010.78 1011.14 1011.54 1011.97 1012.41 1012.82 1013.21 1013.57 1013.93 1014.28 1014.64 1015.01 1015.36 1015.69 1015.97 1016.18 1016.31 1016.39 1016.42 1016.45
1003.21 1003.90 1004.71 1005.53 1006.26 1006.83 1007.26 1007.55 1007.76 1007.95 1008.14 1008.37 1008.63 1008.91 1009.18 1009.41 1009.60 1009.73 1009.82 1009.91 1010.01 1010.17 1010.40 1010.71 1011.06 1011.45 1011.85 1012.22 1012.57 1012.87 1013.16 1013.44 1013.73 1014.04 1014.38 1014.72 1015.06 1015.37 1015.63 1015.82 1015.95 1016.04 1016.11
1003.66 1004.23 1004.92 1005.62 1006.25 1006.75 1007.12 1007.38 1007.56 1007.71 1007.88 1008.08 1008.32 1008.58 1008.84 1009.07 1009.26 1009.41 1009.54 1009.67 1009.83 1010.04 1010.30 1010.63 1010.99 1011.37 1011.73 1012.06 1012.34 1012.58 1012.79 1012.99 1013.21 1013.46 1013.75 1014.06 1014.39 1014.71 1014.99 1015.23 1015.40 1015.54 1015.66
1004.22 1004.61 1005.12 1005.65 1006.14 1006.54 1006.84 1007.05 1007.21 1007.36 1007.54 1007.75 1008.00 1008.27 1008.54 1008.78 1008.99 1009.17 1009.32 1009.48 1009.67 1009.91 1010.20 1010.53 1010.90 1011.27 1011.61 1011.91 1012.15 1012.34 1012.50 1012.64 1012.79 1012.98 1013.21 1013.49 1013.79 1014.10 1014.38 1014.64 1014.85 1015.03 1015.18
1004.78 1004.97 1005.27 1005.61 1005.93 1006.20 1006.42 1006.59 1006.75 1006.92 1007.13 1007.39 1007.68 1007.98 1008.28 1008.55 1008.78 1008.98 1009.15 1009.32 1009.52 1009.76 1010.05 1010.40 1010.77 1011.14 1011.48 1011.77 1012.00 1012.17 1012.30 1012.41 1012.52 1012.66 1012.84 1013.07 1013.34 1013.62 1013.90 1014.17 1014.41 1014.61 1014.79
1005.26 1005.23 1005.32 1005.45 1005.60 1005.75 1005.88 1006.03 1006.19 1006.41 1006.68 1007.00 1007.35 1007.71 1008.06 1008.36 1008.61 1008.81 1008.98 1009.15 1009.33 1009.56 1009.85 1010.18 1010.55 1010.93 1011.29 1011.60 1011.86 1012.05 1012.19 1012.29 1012.39 1012.51 1012.65 1012.85 1013.08 1013.33 1013.61 1013.87 1014.12 1014.35 1014.56
1005.59 1005.37 1005.26 1005.21 1005.20 1005.24 1005.31 1005.43 1005.61 1005.87 1006.21 1006.60 1007.02 1007.45 1007.84 1008.17 1008.43 1008.63 1008.79 1008.93 1009.09 1009.29 1009.55 1009.87 1010.24 1010.64 1011.02 1011.38 1011.68 1011.92 1012.10 1012.24 1012.35 1012.47 1012.60 1012.77 1012.97 1013.21 1013.46 1013.73 1013.99 1014.23 1014.46
1005.77 1005.40 1005.12 1004.92 1004.80 1004.74 1004.77 1004.88 1005.09 1005.39 1005.79 1006.24 1006.73 1007.20 1007.63 1007.98 1008.24 1008.43 1008.56 1008.67 1008.79 1008.95 1009.18 1009.48 1009.84 1010.25 1010.67 1011.08 1011.44 1011.74 1011.99 1012.17 1012.32 1012.45 1012.59 1012.74 1012.93 1013.15 1013.39 1013.65 1013.92 1014.17 1014.42
1005.86 1005.37 1004.99 1004.70 1004.49 1004.38 1004.38 1004.49 1004.72 1005.06 1005.49 1005.99 1006.50 1007.00 1007.44 1007.80 1008.05 1008.22 1008.31 1008.38 1008.45 1008.57 1008.76 1009.03 1009.38 1009.79 1010.24 1010.69 1011.11 1011.48 1011.78 1012.03 1012.22 1012.37 1012.52 1012.67 1012.84 1013.05 1013.28 1013.53 1013.80 1014.06 1014.32
1005.95 1005.41 1004.98 1004.64 1004.40 1004.27 1004.26 1004.37 1004.60 1004.95 1005.39 1005.89 1006.41 1006.90 1007.33 1007.66 1007.89 1008.03 1008.09 1008.11 1008.14 1008.21 1008.35 1008.58 1008.91 1009.31 1009.77 1010.24 1010.70 1011.11 1011.47 1011.75 1011.98 1012.16 1012.31 1012.46 1012.62 1012.80 1013.02 1013.26 1013.53 1013.80 1014.06
1006.14 1005.61 1005.17 1004.84 1004.61 1004.49 1004.48 1004.59 1004.82 1005.15 1005.56 1006.03 1006.50 1006.95 1007.34 1007.63 1007.82 1007.91 1007.94 1007.92 1007.90 1007.92 1008.02 1008.21 1008.50 1008.87 1009.31 1009.77 1010.24 1010.67 1011.04 1011.35 1011.60 1011.78 1011.93 1012.07 1012.21 1012.37 1012.57 1012.79 1013.05 1013.31 1013.58
1006.52 1006.03 1005.64 1005.35 1005.16 1005.06 1005.07 1005.17 1005.37 1005.65 1006.00 1006.40 1006.80 1007.18 1007.50 1007.73 1007.87 1007.93 1007.91 1007.86 1007.80 1007.79 1007.83 1007.97 1008.21 1008.53 1008.92 1009.35 1009.78 1010.19 1010.56 1010.86 1011.10 1011.28 1011.42 1011.53 1011.65 1011.78 1011.95 1012.15 1012.39 1012.64 1012.91
1007.10 1006.68 1006.37 1006.15 1006.01 1005.95 1005.96 1006.05 1006.20 1006.42 1006.69 1006.99 1007.29 1007.57 1007.81 1007.97 1008.06 1008.08 1008.03 1007.96 1007.88 1007.82 1007.83 1007.91 1008.08 1008.34 1008.65 1009.02 1009.39 1009.75 1010.08 1010.35 1010.56 1010.72 1010.84 1010.93 1011.02 1011.13 1011.27 1011.44 1011.65 1011.89 1012.15
1007.82 1007.49 1007.26 1007.12 1007.05 1007.02 1007.04 1007.10 1007.20 1007.34 1007.51 1007.70 1007.90 1008.07 1008.22 1008.32 1008.37 1008.35 1008.29 1008.21 1008.11 1008.04 1008.01 1008.04 1008.14 1008.32 1008.55 1008.82 1009.12 1009.41 1009.68 1009.90 1010.08 1010.22 1010.32 1010.39 1010.46 1010.55 1010.66 1010.81 1011.00 1011.22 1011.46
1008.58 1008.34 1008.20 1008.13 1008.11 1008.11 1008.13 1008.16 1008.21 1008.27 1008.34 1008.43 1008.52 1008.60 1008.68 1008.72 1008.73 1008.71 1008.65 1008.57 1008.47 1008.39 1008.34 1008.32 1008.36 1008.46 1008.60 1008.79 1008.99 1009.21 1009.41 1009.59 1009.73 1009.85 1009.94 1010.01 1010.08 1010.16 1010.26 1010.39 1010.55 1010.75 1010.98
1009.27 1009.10 1009.03 1009.01 1009.03 1009.05 1009.07 1009.07 1009.07 1009.06 1009.05 1009.05 1009.06 1009.08 1009.10 1009.11 1009.11 1009.09 1009.04 1008.98 1008.91 1008.83 1008.77 1008.72 1008.71 1008.73 1008.79 1008.89 1009.01 1009.15 1009.29 1009.43 1009.55 1009.66 1009.75 1009.84 1009.92 1010.01 1010.12 1010.24 1010.40 1010.58 1010.79
1009.78 1009.67 1009.64 1009.66 1009.70 1009.73 1009.74 1009.72 1009.68 1009.62 1009.56 1009.51 1009.46 1009.44 1009.43 1009.43 1009.44 1009.44 1009.43 1009.40 1009.36 1009.30 1009.24 1009.17 1009.12 1009.09 1009.08 1009.10 1009.14 1009.21 1009.30 1009.41 1009.52 1009.64 1009.75 1009.87 1009.98 1010.10 1010.22 1010.36 1010.52 1010.68 1010.87
1010.07 1009.99 1009.99 1010.02 1010.06 1010.09 1010.09 1010.06 1010.01 1009.93 1009.84 1009.76 1009.70 1009.66 1009.65 1009.67 1009.69 1009.73 1009.76 1009.78 1009.77 1009.75 1009.70 1009.63 1009.55 1009.47 1009.41 1009.36 1009.34 1009.36 1009.40 1009.48 1009.59 1009.72 1009.86 1010.02 1010.18 1010.34 1010.50 1010.66 1010.82 1010.98 1011.14
1010.15 1010.08 1010.08 1010.10 1010.14 1010.16 1010.16 1010.13 1010.08 1010.01 1009.92 1009.85 1009.80 1009.77 1009.78 1009.82 1009.88 1009.96 1010.03 1010.10 1010.14 1010.14 1010.11 1010.05 1009.96 1009.85 1009.74 1009.64 1009.57 1009.53 1009.54 1009.60 1009.70 1009.84 1010.01 1010.21 1010.41 1010.61 1010.81 1010.99 1011.16 1011.32 1011.47
1010.08 1010.00 1009.97 1009.98 1010.00 1010.02 1010.03 1010.01 1009.98 1009.93 1009.88 1009.83 1009.81 1009.82 1009.85 1009.92 1010.02 1010.13 1010.25 1010.35 1010.43 1010.47 1010.46 1010.41 1010.32 1010.19 1010.05 1009.91 1009.79 1009.71 1009.68 1009.71 1009.79 1009.93 1010.12 1010.34 1010.58 1010.81 1011.04 1011.25 1011.43 1011.58 1011.71
1009.93 1009.82 1009.76 1009.75 1009.75 1009.77 1009.79 1009.80 1009.80 1009.80 1009.79 1009.79 1009.80 1009.84 1009.91 1010.01 1010.13 1010.27 1010.42 1010.55 1010.66 1010.73 1010.75 1010.71 1010.62 1010.48 1010.32 1010.15 1009.99 1009.87 1009.80 1009.79 1009.85 1009.98 1010.16 1010.38 1010.63 1010.89 1011.13 1011.35 1011.53 1011.68 1011.79
Thickness
5826 5826 5824 5821 5817 5812 5807 5800 5793 5787 5781 5774 5769 5764 5760 5759 5757 5754 5752 5749 5748 5746 5745 5739 5734 5731 5727 5724 5722 5719 5715 5712 5713 5707 5702 5706 5711 5711 5711 5712 5712 5713 5714
5818 5813 5814 5811 5808 5803 5799 5794 5787 5781 5775 5769 5765 5761 5756 5753 5751 5748 5745 5743 5741 5741 5740 5737 5731 5727 5723 5720 5717 5715 5709 5707 5709 5702 5693 5690 5694 5701 5708 5708 5708 5709 5711
5810 5805 5805 5802 5799 5793 5789 5786 5779 5773 5768 5764 5759 5755 5751 5746 5743 5740 5738 5738 5736 5735 5734 5732 5727 5722 5718 5715 5712 5710 5705 5700 5703 5705 5695 5687 5684 5690 5699 5703 5705 5706 5708
5808 5799 5797 5793 5789 5785 5783 5778 5773 5768 5763 5758 5752 5747 5741 5736 5736 5735 5733 5732 5730 5727 5726 5725 5722 5717 5713 5710 5708 5707 5703 5699 5695 5699 5702 5702 5699 5691 5688 5696 5702 5704 5704
5801 5792 5791 5787 5783 5779 5775 5772 5768 5764 5760 5755 5750 5744 5739 5735 5734 5733 5729 5726 5724 5722 5720 5718 5717 5713 5709 5706 5704 5702 5700 5697 5694 5692 5695 5699 5702 5703 5692 5688 5694 5699 5702
5792 5786 5785 5780 5775 5771 5768 5766 5761 5758 5755 5751 5746 5741 5736 5732 5728 5725 5721 5719 5716 5715 5714 5712 5710 5708 5705 5702 5700 5698 5697 5695 5694 5692 5692 5695 5696 5697 5697 5693 5693 5694 5699
5782 5776 5773 5769 5764 5762 5762 5761 5756 5751 5748 5745 5742 5739 5735 5731 5726 5722 5718 5713 5709 5707 5707 5706 5704 5702 5701 5699 5698 5695 5695 5695 5693 5692 5693 5696 5701 5703 5702 5699 5697 5696 5699
5774 5769 5767 5763 5759 5758 5758 5756 5752 5747 5744 5741 5739 5739 5735 5728 5725 5722 5716 5711 5707 5704 5703 5702 5699 5698 5697 5696 5695 5693 5693 5694 5694 5693 5693 5694 5699 5704 5704 5703 5699 5693 5692
5767 5765 5763 5760 5757 5756 5754 5753 5749 5745 5741 5738 5737 5735 5733 5727 5722 5718 5714 5708 5705 5702 5700 5698 5696 5694 5694 5693 5692 5691 5691 5692 5692 5692 5692 5691 5694 5701 5705 5706 5704 5694 5685
5753 5755 5755 5756 5756 5755 5752 5750 5747 5743 5739 5736 5735 5731 5727 5724 5718 5714 5708 5704 5701 5699 5695 5693 5692 5691 5689 5688 5688 5687 5688 5687 5688 5688 5687 5687 5689 5694 5701 5703 5703 5701 5693
5743 5746 5745 5748 5754 5753 5750 5746 5743 5741 5737 5734 5731 5726 5721 5718 5714 5709 5705 5701 5698 5695 5693 5691 5689 5688 5686 5684 5683 5682 5682 5682 5682 5683 5682 5682 5682 5685 5691 5696 5697 5697 5695
5744 5748 5748 5749 5750 5750 5748 5745 5742 5739 5735 5732 5728 5722 5718 5713 5708 5705 5703 5700 5696 5693 5691 5690 5688 5686 5684 5682 5680 5678 5678 5678 5677 5677 5676 5675 5676 5677 5680 5685 5687 5689 5691
5738 5743 5745 5746 5746 5746 5746 5745 5743 5739 5734 5729 5724 5717 5712 5708 5704 5703 5701 5699 5695 5692 5689 5689 5686 5685 5682 5680 5677 5675 5674 5674 5673 5673 5672 5671 5670 5669 5671 5675 5678 5680 5684
5729 5734 5737 5740 5742 5743 5744 5743 5741 5738 5731 5724 5717 5711 5709 5705 5702 5700 5699 5696 5693 5690 5688 5687 5686 5684 5681 5678 5675 5672 5670 5669 5668 5668 5668 5667 5665 5663 5664 5667 5670 5673 5674
5722 5727 5730 5734 5737 5738 5739 5740 5737 5734 5728 5718 5710 5706 5705 5704 5702 5698 5695 5692 5690 5688 5686 5684 5682 5681 5678 5676 5673 5670 5668 5665 5664 5663 5663 5663 5662 5661 5661 5663 5664 5666 5667
5715 5720 5725 5729 5731 5734 5734 5733 5729 5726 5721 5713 5706 5705 5702 5700 5697 5694 5691 5687 5685 5683 5682 5680 5678 5676 5676 5674 5671 5667 5665 5663 5661 5661 5661 5660 5660 5660 5660 5661 5662 5663 5663
5704 5709 5714 5718 5723 5727 5727 5723 5720 5717 5712 5707 5702 5699 5697 5693 5691 5689 5685 5682 5679 5677 5674 5673 5672 5671 5670 5668 5666 5663 5661 5660 5659 5660 5660 5661 5661 5660 5660 5660 5661 5662 5663
5693 5698 5703 5707 5709 5711 5712 5711 5708 5704 5699 5695 5692 5690 5688 5685 5683 5680 5677 5675 5674 5671 5668 5666 5665 5664 5663 5661 5659 5658 5657 5657 5658 5660 5661 5660 5662 5662 5661 5660 5660 5662 5664
5685 5690 5695 5697 5699 5701 5702 5699 5695 5690 5686 5682 5680 5678 5676 5673 5671 5669 5668 5668 5666 5665 5663 5661 5659 5657 5655 5653 5652 5651 5649 5650 5653 5657 5660 5661 5661 5663 5661 5658 5657 5658 5660
5680 5683 5687 5689 5689 5689 5689 5685 5681 5677 5673 5672 5670 5669 5666 5662 5660 5659 5659 5659 5659 5657 5657 5655 5653 5651 5650 5648 5645 5644 5643 5642 5644 5649 5653 5655 5655 5656 5656 5653 5652 5652 5655
5676 5678 5678 5678 5678 5678 5676 5671 5669 5667 5666 5665 5663 5661 5658 5655 5652 5651 5651 5651 5651 5650 5649 5647 5646 5645 5643 5642 5638 5636 5634 5634 5635 5637 5640 5644 5645 5647 5648 5648 5647 5647 5650
5672 5672 5671 5670 5671 5671 5668 5663 5662 5663 5663 5660 5657 5654 5651 5649 5647 5645 5645 5645 5644 5642 5641 5639 5637 5636 5634 5632 5629 5627 5626 5626 5626 5628 5631 5634 5636 5637 5639 5640 5640 5641 5642
5670 5668 5667 5666 5666 5666 5664 5659 5659 5660 5659 5655 5652 5649 5645 5642 5640 5639 5638 5638 5637 5635 5632 5629 5626 5623 5621 5619 5618 5616 5616 5617 5618 5621 5624 5625 5627 5628 5630 5632 5633 5634 5634
5669 5667 5666 5664 5662 5663 5661 5659 5658 5658 5656 5651 5648 5645 5640 5636 5634 5632 5631 5629 5626 5624 5622 5618 5613 5610 5606 5603 5602 5603 5605 5607 5610 5613 5616 5618 5620 5621 5624 5625 5625 5626 5628
5670 5667 5665 5662 5662 5662 5660 5657 5655 5654 5652 5650 5645 5640 5635 5632 5628 5624 5619 5618 5614 5611 5609 5605 5601 5596 5591 5587 5586 5589 5594 5599 5604 5608 5609 5611 5613 5615 5617 5619 5620 5621 5621
5672 5667 5664 5661 5661 5661 5658 5655 5652 5650 5648 5644 5640 5635 5631 5628 5625 5621 5615 5609 5607 5604 5601 5596 5592 5588 5583 5580 5580 5583 5588 5595 5600 5603 5605 5607 5610 5611 5612 5613 5614 5615 5615